User: anonymous   Login
Location: San Francisco
(37.7750°N, 122.4180°W)
Time: 16:10:03
(UTC-07:00)
Language:

GP-B - Orbit

View from above orbital plane
View from above orbital plane
View from above satellite
View from above satellite

Ground track
Ground track

The orbit data is extracted from the following two-line orbital elements,

1 28230U 04014A   15179.86307753  .00000309  00000-0  40451-4 0  9996
2 28230 089.8755 134.5032 0002338 102.5790 257.5694 14.78179091602820
Epoch (UTC): 28 June 2015 20:42:49
Eccentricity: 0.0002338
inclination: 89.8755°
perigee height: 633 km
apogee height: 637 km
right ascension of ascending node: 134.5032°
argument of perigee: 102.5790°
revolutions per day: 14.78179091
mean anomaly at epoch: 257.5694°
orbit number at epoch: 60282

The dashed part of the orbit path shows where the satellite is in the earth's shadow,  

DLR